• In United Kingdom
  • List of Countries
  • For 7 days
  • Water Temperature
  • Satellite Maps
  • Weather Map
  • Weather Widgets
  • user-avatar
    Login

    Hourly Weather Canillo

    Today, 24 September, Monday

    Time Temperature Precipitation Wind Pressure Humidity
    00:00 +11°C° 0 mm 3 mps 624 mmHg 79%
    01:00 +11°C° 0 mm 3 mps 624 mmHg 78%
    02:00 +10°C° 0 mm 3 mps 624 mmHg 78%
    03:00 +10°C° 0 mm 3 mps 624 mmHg 78%
    04:00 +10°C° 0 mm 3 mps 624 mmHg 80%
    05:00 +10°C° 0 mm 2 mps 624 mmHg 83%
    06:00 +10°C° 0 mm 3 mps 624 mmHg 85%
    07:00 +11°C° 0 mm 3 mps 625 mmHg 82%
    08:00 +12°C° 0 mm 3 mps 625 mmHg 79%
    09:00 +12°C° 0 mm 3 mps 626 mmHg 76%
    10:00 +13°C° 0 mm 3 mps 626 mmHg 71%
    11:00 +14°C° 0 mm 3 mps 626 mmHg 66%
    12:00 +16°C° 0 mm 3 mps 627 mmHg 61%
    13:00 +16°C° 0 mm 3 mps 626 mmHg 59%
    14:00 +16°C° 0 mm 3 mps 626 mmHg 57%
    15:00 +16°C° 0 mm 3 mps 626 mmHg 54%
    16:00 +13°C° 0.1 mm 3 mps 625 mmHg 60%
    17:00 +11°C° 0.1 mm 3 mps 625 mmHg 66%
    18:00 +9°C° 0.1 mm 3 mps 624 mmHg 73%
    19:00 +8°C° 0.1 mm 3 mps 624 mmHg 71%
    20:00 +7°C° 0.1 mm 2 mps 624 mmHg 70%
    21:00 +7°C° 0.1 mm 2 mps 624 mmHg 69%
    22:00 +6°C° 0 mm 2 mps 624 mmHg 67%
    23:00 +6°C° 0 mm 2 mps 624 mmHg 65%

    Tomorrow, 25 September, Tuesday

    Time Temperature Precipitation Wind Pressure Humidity
    00:00 +6°C° 0 mm 2 mps 624 mmHg 63%
    01:00 +6°C° 0 mm 2 mps 624 mmHg 63%
    02:00 +7°C° 0 mm 1 mps 624 mmHg 64%
    03:00 +6°C° 0 mm 1 mps 624 mmHg 64%
    04:00 +6°C° 0 mm 1 mps 624 mmHg 66%
    05:00 +6°C° 0 mm 1 mps 624 mmHg 67%
    06:00 +6°C° 0 mm 1 mps 624 mmHg 68%
    07:00 +8°C° 0 mm 1 mps 625 mmHg 63%
    08:00 +11°C° 0 mm 1 mps 626 mmHg 58%
    09:00 +13°C° 0 mm 2 mps 628 mmHg 52%
    10:00 +14°C° 0 mm 2 mps 628 mmHg 51%
    11:00 +15°C° 0 mm 2 mps 628 mmHg 50%
    12:00 +16°C° 0 mm 2 mps 628 mmHg 48%
    13:00 +15°C° 0 mm 2 mps 628 mmHg 52%
    14:00 +15°C° 0 mm 2 mps 628 mmHg 56%
    15:00 +14°C° 0 mm 2 mps 627 mmHg 60%
    16:00 +13°C° 0 mm 2 mps 627 mmHg 66%
    17:00 +11°C° 0 mm 1 mps 626 mmHg 72%
    18:00 +10°C° 0 mm 1 mps 626 mmHg 78%
    19:00 +9°C° 0 mm 1 mps 626 mmHg 81%
    20:00 +9°C° 0 mm 1 mps 626 mmHg 84%
    21:00 +8°C° 0 mm 1 mps 627 mmHg 87%
    22:00 +8°C° 0 mm 1 mps 627 mmHg 87%
    23:00 +8°C° 0 mm 1 mps 627 mmHg 88%

    Day after tomorrow, 26 September, Wednesday

    Time Temperature Precipitation Wind Pressure Humidity
    00:00 +7°C° 0 mm 2 mps 627 mmHg 88%
    01:00 +7°C° 0 mm 2 mps 626 mmHg 87%
    02:00 +6°C° 0 mm 2 mps 626 mmHg 87%
    03:00 +6°C° 0 mm 2 mps 626 mmHg 86%
    04:00 +6°C° 0 mm 2 mps 626 mmHg 85%
    05:00 +6°C° 0 mm 2 mps 626 mmHg 85%
    06:00 +6°C° 0 mm 2 mps 626 mmHg 84%
    07:00 +8°C° 0 mm 2 mps 628 mmHg 76%
    08:00 +12°C° 0 mm 2 mps 629 mmHg 68%
    09:00 +13°C° 0 mm 3 mps 630 mmHg 59%
    10:00 +14°C° 0 mm 3 mps 631 mmHg 55%
    11:00 +16°C° 0 mm 3 mps 631 mmHg 50%
    12:00 +18°C° 0 mm 3 mps 631 mmHg 45%
    13:00 +17°C° 0 mm 3 mps 631 mmHg 46%
    14:00 +17°C° 0 mm 3 mps 631 mmHg 47%
    15:00 +17°C° 0 mm 3 mps 630 mmHg 47%
    16:00 +14°C° 0 mm 3 mps 630 mmHg 56%
    17:00 +13°C° 0 mm 2 mps 629 mmHg 64%
    18:00 +10°C° 0 mm 2 mps 628 mmHg 73%
    19:00 +9°C° 0 mm 2 mps 628 mmHg 76%
    20:00 +8°C° 0 mm 2 mps 628 mmHg 78%
    21:00 +9°C° 0 mm 1 mps 628 mmHg 81%
    22:00 +8°C° 0 mm 1 mps 628 mmHg 81%
    23:00 +8°C° 0 mm 1 mps 628 mmHg 81%

    27 September, Thursday

    Time Temperature Precipitation Wind Pressure Humidity
    00:00 +8°C° 0 mm 1 mps 628 mmHg 81%
    01:00 +8°C° 0 mm 1 mps 628 mmHg 80%
    02:00 +8°C° 0 mm 1 mps 627 mmHg 80%
    03:00 +8°C° 0 mm 1 mps 627 mmHg 79%
    04:00 +8°C° 0 mm 1 mps 627 mmHg 78%
    05:00 +8°C° 0 mm 1 mps 627 mmHg 77%
    06:00 +8°C° 0 mm 1 mps 627 mmHg 76%
    07:00 +10°C° 0 mm 1 mps 628 mmHg 66%
    08:00 +13°C° 0 mm 1 mps 629 mmHg 56%
    09:00 +16°C° 0 mm 1 mps 631 mmHg 47%
    10:00 +17°C° 0 mm 2 mps 631 mmHg 44%
    11:00 +18°C° 0 mm 2 mps 631 mmHg 41%
    12:00 +20°C° 0 mm 2 mps 631 mmHg 39%
    13:00 +20°C° 0 mm 2 mps 631 mmHg 40%
    14:00 +20°C° 0 mm 2 mps 630 mmHg 41%
    15:00 +19°C° 0 mm 2 mps 630 mmHg 42%
    16:00 +18°C° 0 mm 1 mps 629 mmHg 53%
    17:00 +14°C° 0 mm 1 mps 628 mmHg 64%
    18:00 +12°C° 0 mm 1 mps 627 mmHg 74%
    19:00 +11°C° 0 mm 1 mps 626 mmHg 76%
    20:00 +11°C° 0 mm 1 mps 626 mmHg 77%
    21:00 +10°C° 0 mm 1 mps 626 mmHg 79%
    22:00 +10°C° 0 mm 1 mps 626 mmHg 78%
    23:00 +10°C° 0 mm 1 mps 625 mmHg 77%

    28 September, Friday

    Time Temperature Precipitation Wind Pressure Humidity
    00:00 +10°C° 0 mm 1 mps 625 mmHg 77%
    01:00 +10°C° 0 mm 1 mps 625 mmHg 76%
    02:00 +10°C° 0 mm 1 mps 624 mmHg 75%
    03:00 +9°C° 0 mm 1 mps 624 mmHg 75%
    04:00 +9°C° 0 mm 1 mps 624 mmHg 73%
    05:00 +9°C° 0 mm 1 mps 623 mmHg 71%
    06:00 +8°C° 0 mm 2 mps 623 mmHg 69%
    07:00 +12°C° 0 mm 1 mps 624 mmHg 60%
    08:00 +15°C° 0 mm 1 mps 626 mmHg 52%
    09:00 +18°C° 0 mm 1 mps 627 mmHg 43%
    10:00 +20°C° 0 mm 1 mps 627 mmHg 41%
    11:00 +21°C° 0 mm 1 mps 627 mmHg 39%
    12:00 +22°C° 0 mm 1 mps 627 mmHg 37%
    13:00 +22°C° 0 mm 1 mps 626 mmHg 38%
    14:00 +21°C° 0 mm 1 mps 626 mmHg 40%
    15:00 +20°C° 0 mm 2 mps 625 mmHg 41%
    16:00 +19°C° 0 mm 1 mps 624 mmHg 49%
    17:00 +16°C° 0 mm 1 mps 623 mmHg 57%
    18:00 +14°C° 0 mm 1 mps 623 mmHg 66%
    19:00 +13°C° 0 mm 1 mps 622 mmHg 69%
    20:00 +12°C° 0 mm 1 mps 622 mmHg 72%
    21:00 +11°C° 0 mm 1 mps 622 mmHg 75%
    22:00 +11°C° 0 mm 1 mps 622 mmHg 75%
    23:00 +11°C° 0 mm 1 mps 622 mmHg 76%

    29 September, Saturday

    Time Temperature Precipitation Wind Pressure Humidity
    00:00 +10°C° 0 mm 1 mps 621 mmHg 77%
    01:00 +10°C° 0 mm 1 mps 621 mmHg 78%
    02:00 +10°C° 0 mm 1 mps 621 mmHg 78%
    03:00 +10°C° 0 mm 1 mps 621 mmHg 79%
    04:00 +10°C° 0 mm 1 mps 621 mmHg 79%
    05:00 +10°C° 0 mm 1 mps 621 mmHg 80%
    06:00 +9°C° 0 mm 1 mps 621 mmHg 80%
    07:00 +12°C° 0 mm 1 mps 622 mmHg 70%
    08:00 +15°C° 0 mm 1 mps 623 mmHg 60%
    09:00 +18°C° 0 mm 1 mps 624 mmHg 50%
    10:00 +19°C° 0 mm 1 mps 624 mmHg 47%
    11:00 +20°C° 0 mm 1 mps 624 mmHg 44%
    12:00 +21°C° 0 mm 1 mps 625 mmHg 41%
    13:00 +21°C° 0.1 mm 1 mps 624 mmHg 44%
    14:00 +20°C° 0.1 mm 1 mps 623 mmHg 48%
    15:00 +19°C° 0.1 mm 1 mps 623 mmHg 52%
    16:00 +16°C° 0.1 mm 1 mps 622 mmHg 57%
    17:00 +15°C° 0.1 mm 1 mps 622 mmHg 63%
    18:00 +13°C° 0.1 mm 1 mps 621 mmHg 68%
    19:00 +13°C° 0.1 mm 1 mps 621 mmHg 70%
    20:00 +12°C° 0.1 mm 1 mps 621 mmHg 72%
    21:00 +12°C° 0.1 mm 1 mps 621 mmHg 74%
    22:00 +11°C° 0.1 mm 1 mps 621 mmHg 75%
    23:00 +11°C° 0.1 mm 1 mps 621 mmHg 77%
    Show more